Regional Weather Roundup
Issued by NWS Kansas City/Pleasant Hill, MO

Home | Current Version | Previous Version | Graphics & Text | Print | Product List | Glossary Off
Versions: 1 2 3 4 5 6 7 8 9 10 11 12 13 14 15 16 17 18 19 20 21 22 23 24 25 26 27 28 29 30 31 32 33 34 35 36 37 38 39 40 41 42 43 44 45 46 47 48 49 50

496
ASUS43 KEAX 201010
RWREAX

WEATHER ROUNDUP FOR EASTERN KANSAS AND NORTHWEST MISSOURI
NATIONAL WEATHER SERVICE KANSAS CITY/PLEASANT HILL MO
400 AM CST TUE FEB 20 2018

KSZ040-057-103>105-MOZ028-029-037-043-201100-
...KANSAS CITY METROPOLITAN AREA...

CITY           SKY/WX    TMP DP  RH WIND       PRES   REMARKS
K.C. INTL      FRZ DRZL  30  28  92 N9        29.82R FOG     WCI  22
K.C. DOWNTOWN  CLOUDY    32  29  88 NW8       29.84R FOG     WCI  25
LEES SUMMIT    CLOUDY    32  32 100 N8        29.81S FOG     WCI  25
OLATHE - IXD   CLOUDY    30  29  96 NW14      29.83R FOG     WCI  19
OLATHE - OJC   CLOUDY    30  30 100 N9        29.81R FOG     WCI  22
LAWRENCE       CLOUDY    30  28  92 NW13      29.86R FOG     WCI  20

$$

MOZ001>008-011>017-020>025-030>033-038>040-044>046-053-054-201100-
...NORTHERN AND CENTRAL MISSOURI...

CITY           SKY/WX    TMP DP  RH WIND       PRES   REMARKS
ST. JOSEPH     CLOUDY    29  29 100 NW10      29.87R FOG     WCI  20
MOSBY            N/A     32  32 100 NW5       29.82R FOG     WCI  27
WARRENSBURG    CLOUDY    36  34  93 NW3       29.81S
WHITEMAN AFB   CLOUDY    37  36  95 NW5       29.77S WCI  34
CLINTON        CLOUDY    41  41 100 N5        29.81R
SEDALIA        CLOUDY    43  43 100 NW8       29.81R
WARSAW         NOT AVBL
CHILLICOTHE      N/A     33  32  96 NW6       29.81F WCI  28
KIRKSVILLE     CLOUDY    38  38 100 NW10      29.79R WCI  31

$$

MOZ041-047>049-056>058-063>065-088>090-097-201100-
...EASTERN AND SOUTHERN MISSOURI...

CITY           SKY/WX    TMP DP  RH WIND       PRES   REMARKS
ST. LOUIS INTL CLOUDY    69  58  67 S17G25    29.85R
SPIRIT OF STL  CLOUDY    70  58  65 S14G24    29.84R
COLUMBIA       CLOUDY    64  59  83 S16       29.79R
JEFFERSON CITY CLOUDY    68  57  68 S12G18    29.79S
ROLLA          CLOUDY    66  57  72 S24G33    29.85R
OSAGE BEACH    CLOUDY    66  58  75 S16       29.83R
SPRINGFIELD    CLOUDY    67  58  72 S22G30    29.83R
BRANSON        CLOUDY    66  59  77 S9G17     29.89F
JOPLIN         PTCLDY    65  60  84 S18G28    29.79R
WEST PLAINS    CLOUDY    67  55  65 S10G22    29.94R

$$

IAZ060-094-KSZ022-034>040-054-083-096-NEZ052-066-093-201100-
...KANSAS...SOUTHEAST NEBRASKA AND IOWA...

CITY           SKY/WX    TMP DP  RH WIND       PRES   REMARKS
TOPEKA         CLOUDY    29  29 100 NW5       29.86S FOG     WCI  24
MANHATTAN      CLOUDY    24  21  88 N5        29.92R FOG     WCI  18
EMPORIA        CLOUDY    27  26  96 N10       29.85R FOG     WCI  17
CHANUTE        FOG       35  35 100 N5        29.80R VSB 1/2 WCI  31
WICHITA        FRZ DRZL  27  25  92 N15       29.82F FOG     WCI  15
OMAHA          FRZ DRZL  21  18  88 NW15      29.90S FOG     WCI   8
LINCOLN        FLURRIES  20  17  88 N14       29.92R WCI   7
FALLS CITY     CLOUDY    24  22  91 NW14G21   29.87S WCI  12
LAMONI         CLOUDY    30  27  88 NW12      29.80F WCI  20
DES MOINES     FRZ DRZL  29  27  92 W9        29.82F WCI  20

$$





USA.gov is the U.S. government's official web portal to all federal, state and local government web resources and services.